MACSAT 2 (M 2) 1 20608U 90043B 10067.55680132 +.00000116 +00000-0 +14391-4 0 09569 2 20608 089.7280 073.3501 0097054 052.6284 308.3720 14.72020468062244 TUBSAT A 1 21577U 91050D 10066.02742244 .00000028 00000-0 23559-4 0 7081 2 21577 098.4998 014.8669 0006083 351.7204 008.3899 14.38555037977993 S80/T 1 22078U 92052C 10067.62540648 -.00000037 +00000-0 +10000-3 0 08338 2 22078 066.0850 126.0787 0010301 207.8854 152.1605 12.86729266825763 HEALTHSAT 1 1 22827U 93061E 10066.02722115 .00000084 00000-0 48885-4 0 4829 2 22827 098.4653 018.6394 0009081 174.5679 185.5626 14.30192625857798 TUBSAT B 1 22970U 94003B 10067.67970397 +.00000051 +00000-0 +10000-3 0 02799 2 22970 082.5652 322.9806 0015214 310.4207 049.5600 13.16915631774794 CERISE 1 23606U 95033B 10067.70470211 +.00000039 +00000-0 +11489-4 0 00397 2 23606 098.2690 202.7724 0005917 340.5928 019.5067 14.85011068791122 UPM/LBSAT 1 23607U 95033C 10067.75706731 +.00000022 +00000-0 +11052-4 0 03304 2 23607 098.1735 161.3691 0006901 124.8398 235.3486 14.74806048788041 FAISAT 2V 1 24954U 97052B 10066.24327114 .00000056 00000-0 38486-4 0 7682 2 24954 082.9224 118.4758 0040939 109.5754 250.9831 13.79662979626947 MUBLCOM 1 25736U 99026B 10065.82174705 .00000260 00000-0 86061-4 0 9662 2 25736 097.7726 339.6917 0005485 341.7409 018.3586 14.44653895568718 RUBIN 3/SL-8 1 27561U 02054C 10066.12289184 .00000035 00000-0 18423-4 0 9204 2 27561 097.9377 252.9677 0048129 142.9381 217.5156 14.53797052385719 APRIZESAT 2 1 28366U 04025A 10067.44068853 +.00000092 +00000-0 +42870-4 0 05833 2 28366 098.1116 053.2218 0110407 092.7814 268.6024 14.35599283298149 SAUDICOMSAT 1 1 28369U 04025D 10067.58412946 +.00000008 +00000-0 +12821-4 0 06175 2 28369 097.9918 098.0565 0033315 316.6146 043.2534 14.50672392301282 SAUDICOMSAT 2 1 28370U 04025E 10066.09393524 .00000017 00000-0 16449-4 0 6150 2 28370 098.0123 080.3929 0059393 001.4794 358.6580 14.45769602300057 APRIZESAT 1 1 28372U 04025G 10067.58264724 +.00000195 +00000-0 +62816-4 0 05993 2 28372 097.9969 089.3127 0046735 336.6850 023.2355 14.48196515300769 NANOSAT(1) 1 28493U 04049B 10067.90833514 +.00000171 +00000-0 +36767-4 0 05763 2 28493 098.3030 038.2568 0005584 128.4641 231.7063 14.70377519280063 SAUDICOMSAT 7 1 31119U 07012C 10067.66542410 +.00000386 +00000-0 +88724-4 0 08806 2 31119 097.9556 124.8855 0062610 148.0663 212.4324 14.59486771154071 SAUDICOMSAT 6 1 31121U 07012E 10066.01187875 .00000366 00000-0 89075-4 0 8782 2 31121 097.9526 118.0278 0079251 168.9263 191.3703 14.56358417153517 SAUDICOMSAT 5 1 31124U 07012H 10067.82621715 +.00000400 +00000-0 +89121-4 0 08883 2 31124 097.9598 127.9221 0054202 139.9776 220.5413 14.61073099154264 SAUDICOMSAT 3 1 31125U 07012J 10067.66677991 +.00000411 +00000-0 +88749-4 0 08936 2 31125 097.9631 130.4660 0045956 133.1983 227.3057 14.62608964154402 SAUDICOMSAT 4 1 31127U 07012L 10067.70831282 +.00000381 +00000-0 +89803-4 0 08868 2 31127 097.9537 122.4540 0070605 155.4579 204.9982 14.58008536153922